Location: Little Elm
(33.1626°N, 96.9375°W)
Time: 14:23:55
(UTC+00:00)

X-37B - Visible Passes

Search period start: 20 May 2022 00:00
Search period end: 30 May 2022 00:00
Orbit: 329 x 342 km, 45.0° (Epoch: 18 May)

Date Brightness Start Highest point End Pass type
(mag) Time Alt. Az. Time Alt. Az. Time Alt. Az.
20 May 2.3 02:11:45 10° NNW 02:13:58 21° NNE 02:16:10 10° ENE visible
20 May 3.4 03:46:52 10° WNW 03:47:25 14° WNW 03:47:25 14° WNW visible
21 May 0.7 02:31:47 10° NW 02:34:33 53° NNE 02:35:40 29° E visible
22 May 1.1 02:52:18 10° WNW 02:54:57 38° SW 02:55:12 37° SSW visible
23 May 3.1 03:14:10 10° WSW 03:14:48 11° SW 03:14:48 11° SW visible
24 May 1.3 01:57:43 10° WNW 02:00:22 39° SW 02:03:01 10° SSE visible
25 May 3.0 02:19:32 10° WSW 02:20:35 12° SW 02:21:39 10° SSW visible
